Location: Colonia Mina de C?rbuni
(46.1667°N, 22.7167°E)
Time: 21:41:38
(UTC+00:00)

Tiros 1 - Pass Details

Date: 26 April 2024
Orbit: 624 x 657 km, 48.4° (Epoch: 20 May)

Event Time Altitude Azimuth Distance (km) Brightness Sun altitude
Rises 21:50:52 0° 261° (W) 2,942 - -29.4°
Reaches altitude 10° 21:53:13 10° 263° (W) 2,028 - -29.5°
Maximum altitude 21:57:53 74° 349° (NNW) 662 - -29.6°
Drops below altitude 10° 22:02:31 10° 75° (ENE) 2,010 - -29.7°
Exits shadow 22:04:47 - 77° (ENE) 2,891 10.6 -29.7°
Sets 22:04:50 0° 77° (ENE) 2,914 10.6 -29.7°
